﻿測定場所 (Monitoring sites),日付 (Measurement date),時間 (Measurement time),線量率 最大値 (max) μGy/h,線量率 最小値 (min) μGy/h,線量率 平均値 (average) μGy/h,
足立 (Adachi),2023-05-14,23:01～24:00,0.0312,0.0265,0.0291,
足立 (Adachi),2023-05-14,22:01～23:00,0.0327,0.0278,0.0298,
足立 (Adachi),2023-05-14,21:01～22:00,0.0321,0.0275,0.0297,
足立 (Adachi),2023-05-14,20:01～21:00,0.0308,0.0260,0.0289,
足立 (Adachi),2023-05-14,19:01～20:00,0.0308,0.0272,0.0288,
足立 (Adachi),2023-05-14,18:01～19:00,0.0326,0.0266,0.0293,
足立 (Adachi),2023-05-14,17:01～18:00,0.0316,0.0281,0.0294,
足立 (Adachi),2023-05-14,16:01～17:00,0.0308,0.0266,0.0292,
足立 (Adachi),2023-05-14,15:01～16:00,0.0312,0.0270,0.0289,
足立 (Adachi),2023-05-14,14:01～15:00,0.0308,0.0270,0.0287,
足立 (Adachi),2023-05-14,13:01～14:00,0.0308,0.0267,0.0289,
足立 (Adachi),2023-05-14,12:01～13:00,0.0310,0.0263,0.0289,
足立 (Adachi),2023-05-14,11:01～12:00,0.0315,0.0257,0.0289,
足立 (Adachi),2023-05-14,10:01～11:00,0.0308,0.0263,0.0287,
足立 (Adachi),2023-05-14,09:01～10:00,0.0309,0.0261,0.0286,
足立 (Adachi),2023-05-14,08:01～09:00,0.0311,0.0268,0.0287,
足立 (Adachi),2023-05-14,07:01～08:00,0.0311,0.0267,0.0287,
足立 (Adachi),2023-05-14,06:01～07:00,0.0309,0.0265,0.0288,
足立 (Adachi),2023-05-14,05:01～06:00,0.0311,0.0270,0.0290,
足立 (Adachi),2023-05-14,04:01～05:00,0.0325,0.0271,0.0296,
足立 (Adachi),2023-05-14,03:01～04:00,0.0308,0.0270,0.0289,
足立 (Adachi),2023-05-14,02:01～03:00,0.0311,0.0268,0.0286,
足立 (Adachi),2023-05-14,01:01～02:00,0.0311,0.0261,0.0288,
足立 (Adachi),2023-05-14,00:01～01:00,0.0320,0.0270,0.0287,
足立 (Adachi),2023-05-13,23:01～24:00,0.0311,0.0264,0.0287,
足立 (Adachi),2023-05-13,22:01～23:00,0.0304,0.0257,0.0285,
足立 (Adachi),2023-05-13,21:01～22:00,0.0314,0.0271,0.0287,
足立 (Adachi),2023-05-13,20:01～21:00,0.0313,0.0266,0.0285,
足立 (Adachi),2023-05-13,19:01～20:00,0.0305,0.0266,0.0287,
足立 (Adachi),2023-05-13,18:01～19:00,0.0309,0.0258,0.0287,
足立 (Adachi),2023-05-13,17:01～18:00,0.0321,0.0271,0.0290,
足立 (Adachi),2023-05-13,16:01～17:00,0.0321,0.0275,0.0295,
足立 (Adachi),2023-05-13,15:01～16:00,0.0340,0.0290,0.0313,
足立 (Adachi),2023-05-13,14:01～15:00,0.0339,0.0292,0.0313,
足立 (Adachi),2023-05-13,13:01～14:00,0.0333,0.0289,0.0316,
足立 (Adachi),2023-05-13,12:01～13:00,0.0326,0.0273,0.0298,
足立 (Adachi),2023-05-13,11:01～12:00,0.0315,0.0270,0.0293,
足立 (Adachi),2023-05-13,10:01～11:00,0.0326,0.0282,0.0308,
足立 (Adachi),2023-05-13,09:01～10:00,0.0326,0.0270,0.0302,
足立 (Adachi),2023-05-13,08:01～09:00,0.0301,0.0270,0.0288,
足立 (Adachi),2023-05-13,07:01～08:00,0.0309,0.0253,0.0287,
足立 (Adachi),2023-05-13,06:01～07:00,0.0313,0.0266,0.0289,
足立 (Adachi),2023-05-13,05:01～06:00,0.0309,0.0264,0.0289,
足立 (Adachi),2023-05-13,04:01～05:00,0.0315,0.0270,0.0292,
足立 (Adachi),2023-05-13,03:01～04:00,0.0308,0.0268,0.0291,
足立 (Adachi),2023-05-13,02:01～03:00,0.0336,0.0266,0.0298,
足立 (Adachi),2023-05-13,01:01～02:00,0.0373,0.0302,0.0337,
足立 (Adachi),2023-05-13,00:01～01:00,0.0401,0.0336,0.0366,
足立 (Adachi),2023-05-12,23:01～24:00,0.0353,0.0273,0.0303,
足立 (Adachi),2023-05-12,22:01～23:00,0.0326,0.0276,0.0292,
足立 (Adachi),2023-05-12,21:01～22:00,0.0317,0.0270,0.0293,
足立 (Adachi),2023-05-12,20:01～21:00,0.0321,0.0270,0.0291,
足立 (Adachi),2023-05-12,19:01～20:00,0.0313,0.0264,0.0289,
足立 (Adachi),2023-05-12,18:01～19:00,0.0318,0.0270,0.0288,
足立 (Adachi),2023-05-12,17:01～18:00,0.0314,0.0271,0.0289,
足立 (Adachi),2023-05-12,16:01～17:00,0.0311,0.0264,0.0288,
足立 (Adachi),2023-05-12,15:01～16:00,0.0314,0.0270,0.0295,
足立 (Adachi),2023-05-12,14:01～15:00,0.0310,0.0269,0.0293,
足立 (Adachi),2023-05-12,13:01～14:00,0.0313,0.0266,0.0288,
足立 (Adachi),2023-05-12,12:01～13:00,0.0304,0.0257,0.0284,
足立 (Adachi),2023-05-12,11:01～12:00,0.0322,0.0264,0.0289,
足立 (Adachi),2023-05-12,10:01～11:00,0.0312,0.0270,0.0292,
足立 (Adachi),2023-05-12,09:01～10:00,0.0316,0.0271,0.0293,
足立 (Adachi),2023-05-12,08:01～09:00,0.0313,0.0270,0.0292,
足立 (Adachi),2023-05-12,07:01～08:00,0.0315,0.0271,0.0293,
足立 (Adachi),2023-05-12,06:01～07:00,0.0313,0.0265,0.0295,
足立 (Adachi),2023-05-12,05:01～06:00,0.0311,0.0266,0.0289,
足立 (Adachi),2023-05-12,04:01～05:00,0.0303,0.0266,0.0284,
足立 (Adachi),2023-05-12,03:01～04:00,0.0324,0.0259,0.0280,
足立 (Adachi),2023-05-12,02:01～03:00,0.0291,0.0250,0.0276,
足立 (Adachi),2023-05-12,01:01～02:00,0.0304,0.0267,0.0288,
足立 (Adachi),2023-05-12,00:01～01:00,0.0308,0.0263,0.0286,
足立 (Adachi),2023-05-11,23:01～24:00,0.0309,0.0263,0.0287,
足立 (Adachi),2023-05-11,22:01～23:00,0.0304,0.0263,0.0287,
足立 (Adachi),2023-05-11,21:01～22:00,0.0308,0.0270,0.0289,
足立 (Adachi),2023-05-11,20:01～21:00,0.0306,0.0268,0.0288,
足立 (Adachi),2023-05-11,19:01～20:00,0.0320,0.0270,0.0293,
足立 (Adachi),2023-05-11,18:01～19:00,0.0322,0.0271,0.0299,
足立 (Adachi),2023-05-11,17:01～18:00,0.0375,0.0288,0.0335,
足立 (Adachi),2023-05-11,16:01～17:00,0.0429,0.0347,0.0400,
足立 (Adachi),2023-05-11,15:01～16:00,0.0419,0.0290,0.0351,
足立 (Adachi),2023-05-11,14:01～15:00,0.0317,0.0272,0.0293,
足立 (Adachi),2023-05-11,13:01～14:00,0.0311,0.0270,0.0289,
足立 (Adachi),2023-05-11,12:01～13:00,0.0308,0.0272,0.0292,
足立 (Adachi),2023-05-11,11:01～12:00,0.0317,0.0273,0.0293,
足立 (Adachi),2023-05-11,10:01～11:00,0.0312,0.0271,0.0292,
足立 (Adachi),2023-05-11,09:01～10:00,0.0307,0.0273,0.0291,
足立 (Adachi),2023-05-11,08:01～09:00,0.0326,0.0264,0.0289,
足立 (Adachi),2023-05-11,07:01～08:00,0.0308,0.0264,0.0288,
足立 (Adachi),2023-05-11,06:01～07:00,0.0309,0.0272,0.0290,
足立 (Adachi),2023-05-11,05:01～06:00,0.0322,0.0266,0.0291,
足立 (Adachi),2023-05-11,04:01～05:00,0.0316,0.0267,0.0289,
足立 (Adachi),2023-05-11,03:01～04:00,0.0318,0.0266,0.0286,
足立 (Adachi),2023-05-11,02:01～03:00,0.0314,0.0270,0.0285,
足立 (Adachi),2023-05-11,01:01～02:00,0.0306,0.0267,0.0288,
足立 (Adachi),2023-05-11,00:01～01:00,0.0311,0.0266,0.0286,
足立 (Adachi),2023-05-10,23:01～24:00,0.0309,0.0270,0.0288,
足立 (Adachi),2023-05-10,22:01～23:00,0.0309,0.0271,0.0288,
足立 (Adachi),2023-05-10,21:01～22:00,0.0311,0.0268,0.0289,
足立 (Adachi),2023-05-10,20:01～21:00,0.0311,0.0270,0.0289,
足立 (Adachi),2023-05-10,19:01～20:00,0.0309,0.0273,0.0292,
足立 (Adachi),2023-05-10,18:01～19:00,0.0308,0.0263,0.0289,
足立 (Adachi),2023-05-10,17:01～18:00,0.0308,0.0267,0.0290,
足立 (Adachi),2023-05-10,16:01～17:00,0.0321,0.0272,0.0293,
足立 (Adachi),2023-05-10,15:01～16:00,0.0322,0.0264,0.0296,
足立 (Adachi),2023-05-10,14:01～15:00,0.0320,0.0276,0.0298,
足立 (Adachi),2023-05-10,13:01～14:00,0.0319,0.0270,0.0295,
足立 (Adachi),2023-05-10,12:01～13:00,0.0318,0.0276,0.0295,
足立 (Adachi),2023-05-10,11:01～12:00,0.0317,0.0275,0.0294,
足立 (Adachi),2023-05-10,10:01～11:00,0.0313,0.0273,0.0293,
足立 (Adachi),2023-05-10,09:01～10:00,0.0330,0.0271,0.0292,
足立 (Adachi),2023-05-10,08:01～09:00,0.0313,0.0269,0.0289,
足立 (Adachi),2023-05-10,07:01～08:00,0.0307,0.0277,0.0293,
足立 (Adachi),2023-05-10,06:01～07:00,0.0312,0.0273,0.0291,
足立 (Adachi),2023-05-10,05:01～06:00,0.0316,0.0276,0.0293,
足立 (Adachi),2023-05-10,04:01～05:00,0.0311,0.0279,0.0293,
足立 (Adachi),2023-05-10,03:01～04:00,0.0308,0.0270,0.0287,
足立 (Adachi),2023-05-10,02:01～03:00,0.0309,0.0264,0.0286,
足立 (Adachi),2023-05-10,01:01～02:00,0.0308,0.0269,0.0286,
足立 (Adachi),2023-05-10,00:01～01:00,0.0309,0.0270,0.0290,
足立 (Adachi),2023-05-09,23:01～24:00,0.0308,0.0266,0.0286,
足立 (Adachi),2023-05-09,22:01～23:00,0.0302,0.0274,0.0288,
足立 (Adachi),2023-05-09,21:01～22:00,0.0322,0.0263,0.0287,
足立 (Adachi),2023-05-09,20:01～21:00,0.0308,0.0269,0.0288,
足立 (Adachi),2023-05-09,19:01～20:00,0.0306,0.0270,0.0286,
足立 (Adachi),2023-05-09,18:01～19:00,0.0311,0.0262,0.0286,
足立 (Adachi),2023-05-09,17:01～18:00,0.0301,0.0260,0.0285,
足立 (Adachi),2023-05-09,16:01～17:00,0.0311,0.0265,0.0287,
足立 (Adachi),2023-05-09,15:01～16:00,0.0307,0.0264,0.0286,
足立 (Adachi),2023-05-09,14:01～15:00,0.0308,0.0262,0.0286,
足立 (Adachi),2023-05-09,13:01～14:00,0.0301,0.0260,0.0285,
足立 (Adachi),2023-05-09,12:01～13:00,0.0302,0.0270,0.0285,
足立 (Adachi),2023-05-09,11:01～12:00,0.0312,0.0268,0.0288,
足立 (Adachi),2023-05-09,10:01～11:00,0.0309,0.0263,0.0286,
足立 (Adachi),2023-05-09,09:01～10:00,0.0309,0.0263,0.0287,
足立 (Adachi),2023-05-09,08:01～09:00,0.0303,0.0258,0.0285,
足立 (Adachi),2023-05-09,07:01～08:00,0.0301,0.0260,0.0282,
足立 (Adachi),2023-05-09,06:01～07:00,0.0301,0.0260,0.0280,
足立 (Adachi),2023-05-09,05:01～06:00,0.0305,0.0264,0.0282,
足立 (Adachi),2023-05-09,04:01～05:00,0.0308,0.0262,0.0283,
足立 (Adachi),2023-05-09,03:01～04:00,0.0303,0.0267,0.0283,
足立 (Adachi),2023-05-09,02:01～03:00,0.0308,0.0263,0.0286,
足立 (Adachi),2023-05-09,01:01～02:00,0.0312,0.0265,0.0284,
足立 (Adachi),2023-05-09,00:01～01:00,0.0304,0.0264,0.0285,
足立 (Adachi),2023-05-08,23:01～24:00,0.0304,0.0261,0.0284,
足立 (Adachi),2023-05-08,22:01～23:00,0.0303,0.0252,0.0284,
足立 (Adachi),2023-05-08,21:01～22:00,0.0304,0.0267,0.0285,
足立 (Adachi),2023-05-08,20:01～21:00,0.0318,0.0270,0.0287,
足立 (Adachi),2023-05-08,19:01～20:00,0.0308,0.0270,0.0289,
足立 (Adachi),2023-05-08,18:01～19:00,0.0305,0.0270,0.0288,
足立 (Adachi),2023-05-08,17:01～18:00,0.0303,0.0266,0.0287,
足立 (Adachi),2023-05-08,16:01～17:00,0.0305,0.0263,0.0286,
足立 (Adachi),2023-05-08,15:01～16:00,0.0312,0.0261,0.0287,
足立 (Adachi),2023-05-08,14:01～15:00,0.0304,0.0260,0.0286,
足立 (Adachi),2023-05-08,13:01～14:00,0.0310,0.0273,0.0289,
足立 (Adachi),2023-05-08,12:01～13:00,0.0308,0.0262,0.0290,
足立 (Adachi),2023-05-08,11:01～12:00,0.0312,0.0274,0.0293,
足立 (Adachi),2023-05-08,10:01～11:00,0.0331,0.0280,0.0303,
足立 (Adachi),2023-05-08,09:01～10:00,0.0391,0.0306,0.0344,
足立 (Adachi),2023-05-08,08:01～09:00,0.0419,0.0363,0.0387,
足立 (Adachi),2023-05-08,07:01～08:00,0.0403,0.0350,0.0378,
足立 (Adachi),2023-05-08,06:01～07:00,0.0396,0.0326,0.0358,
足立 (Adachi),2023-05-08,05:01～06:00,0.0356,0.0293,0.0331,
足立 (Adachi),2023-05-08,04:01～05:00,0.0362,0.0311,0.0337,
足立 (Adachi),2023-05-08,03:01～04:00,0.0363,0.0312,0.0338,
足立 (Adachi),2023-05-08,02:01～03:00,0.0346,0.0301,0.0324,
足立 (Adachi),2023-05-08,01:01～02:00,0.0367,0.0301,0.0333,
足立 (Adachi),2023-05-08,00:01～01:00,0.0347,0.0306,0.0331,
